Helicity
138 125 130 158 205 184 180 199 198 175 217 297 279 247 204 147 185 201 162 147 170 198 118 258 402 395 318 260 227 263 240 280 254 230 192 156 100 69 65 64 44 24 24
103 114 154 180 177 213 193 189 191 181 195 232 238 261 231 193 174 187 204 152 151 152 162 236 377 388 296 325 257 262 307 310 283 272 280 199 165 91 64 75 50 32 43
75 108 102 121 149 170 212 195 169 156 165 178 228 259 245 243 211 181 185 176 143 171 213 231 445 387 281 239 266 252 247 295 297 265 253 272 193 149 114 75 66 52 54
60 27 51 91 118 136 204 228 188 164 157 148 177 173 190 223 228 188 158 165 169 154 222 227 190 309 307 289 275 261 266 286 299 324 272 214 165 181 152 123 86 78 73
84 30 36 99 82 148 206 213 237 190 160 156 167 191 192 197 218 186 162 148 180 133 107 133 269 194 265 238 263 266 262 279 300 321 347 300 221 193 155 122 147 154 118
6 -38 -30 19 68 145 168 264 237 199 179 157 164 179 176 199 207 185 168 168 181 148 81 71 94 245 325 287 235 256 269 268 283 311 293 337 318 207 176 150 138 172 164
15 1 -42 6 61 107 115 163 179 200 170 147 152 155 164 169 158 156 160 154 149 160 111 35 87 145 182 270 223 254 285 259 300 299 325 284 276 207 190 132 122 154 192
-10 20 27 -25 8 26 96 119 150 147 142 137 136 144 146 181 181 164 182 135 129 138 106 113 44 -0 162 441 262 256 287 187 285 268 277 289 249 241 180 144 144 160 188
1 4 -5 -8 -15 2 28 62 104 104 119 128 139 145 162 158 153 156 134 127 107 115 92 91 112 104 141 247 195 291 249 262 257 282 284 252 234 241 207 171 162 176 151
-10 -7 -16 -0 -0 -25 -47 -56 -42 92 114 123 131 147 140 130 129 102 113 96 89 117 107 100 112 138 109 83 267 274 294 325 228 272 264 223 234 223 243 223 185 185 180
-5 -4 -0 -8 -11 35 57 51 70 118 136 124 119 110 121 119 120 119 93 120 73 85 79 103 111 172 176 201 277 287 316 289 216 259 257 218 242 224 244 250 246 234 242
15 -20 -13 4 1 -7 -30 -59 -62 -37 -43 -18 15 -12 -31 -57 -67 -83 -27 -28 -16 13 61 139 213 289 326 352 389 332 263 235 216 259 239 204 254 221 241 270 246 246 257
87 58 -8 10 -11 -28 -33 -42 -36 -99 -86 -40 -20 -70 -47 -42 -81 -93 -24 -23 14 13 72 141 123 149 208 229 250 240 235 154 186 224 216 204 249 251 269 266 263 287 325
197 246 148 45 6 -16 -7 -16 -23 -22 3 -29 -50 -28 -46 -133 -108 -10 38 108 63 39 94 161 167 241 261 258 244 238 199 182 183 202 188 237 256 240 250 253 260 311 324
317 286 183 251 227 231 198 217 198 184 156 187 153 128 71 37 -27 -11 56 35 2 33 174 233 246 237 177 224 216 223 229 191 181 240 216 219 227 229 237 274 286 318 324
357 282 356 294 270 293 251 249 229 195 184 301 230 297 91 313 341 161 117 55 27 72 117 121 136 155 169 155 155 176 168 149 178 169 197 245 207 171 194 217 247 299 362
196 232 238 247 253 244 193 203 174 197 224 280 289 379 187 164 273 318 333 324 215 176 138 146 178 179 164 97 99 135 154 186 181 191 177 196 221 225 206 188 277 261 299
151 123 109 100 144 122 108 73 127 117 138 164 203 232 170 200 233 235 331 374 349 331 353 253 213 212 205 187 100 135 190 198 201 190 216 230 233 270 287 287 323 365 369
81 83 88 93 131 156 145 130 153 151 141 148 131 144 118 97 126 167 242 285 279 281 188 216 228 158 218 237 237 195 150 128 148 152 178 173 193 197 213 268 326 430 495
19 38 45 38 61 85 64 59 106 102 110 89 113 135 115 86 81 102 134 149 151 160 162 175 165 210 144 161 208 184 155 140 122 154 83 119 72 184 183 322 480 492 550
-17 -16 1 2 31 38 15 14 15 32 32 42 49 57 77 76 75 56 89 100 116 129 153 139 152 156 148 159 187 226 204 186 213 177 150 106 60 90 132 213 347 322 460
-16 -19 -25 -15 5 14 -9 2 19 24 4 -4 -2 6 16 21 28 45 58 84 101 101 122 143 157 159 162 158 155 141 127 165 187 164 119 97 116 101 117 177 181 234 316
-44 -39 -50 -49 -37 -33 -51 -64 -34 -23 -37 -19 -0 6 13 26 29 43 50 59 88 97 111 109 115 131 145 152 210 219 215 125 48 53 94 150 156 70 81 122 259 327 463
-53 -38 -30 -55 -48 -52 -37 -35 -27 -33 -16 -5 -8 9 28 43 71 52 56 68 91 100 109 109 120 123 125 136 143 140 146 192 170 138 105 83 80 89 80 136 193 314 352
-41 -33 -10 -22 -30 -41 -47 -66 -75 -74 -65 -50 -28 -22 -15 6 16 24 28 23 45 70 69 98 118 150 189 167 188 175 139 135 157 192 147 150 130 121 143 202 262 349 351
42 31 10 -20 -53 -63 -67 -65 -67 -80 -98 -63 -45 -30 -37 -24 -25 -15 7 55 47 63 68 76 61 63 82 108 139 165 154 131 128 123 139 135 114 113 64 92 266 268 279
Wind_Speed
108 102 101 99 102 103 97 92 87 77 72 75 77 77 75 69 68 66 64 66 70 65 55 50 44 46 52 47 43 45 46 45 35 34 39 38 37 37 37 36 31 26 24
97 95 93 95 95 99 101 97 94 87 77 75 72 71 69 71 68 66 65 66 66 70 64 56 52 48 55 55 55 49 51 53 39 39 34 43 47 45 42 39 37 34 31
96 100 95 90 91 94 97 98 95 92 84 76 72 70 65 64 66 66 65 63 62 62 62 58 59 54 48 49 59 53 52 48 47 42 38 40 45 44 43 43 40 37 34
99 102 100 96 90 95 89 94 96 90 85 79 77 75 78 78 71 66 63 62 62 63 64 57 46 50 53 59 61 57 54 50 53 52 52 45 38 42 42 45 41 37 35
86 93 91 93 92 88 87 90 90 88 83 78 78 78 79 78 70 66 65 63 63 68 69 74 66 53 51 59 64 66 57 57 57 54 49 49 45 42 43 43 41 41 38
80 79 80 82 87 80 79 81 82 88 81 77 75 76 77 76 74 71 69 66 65 72 74 68 72 67 54 71 74 66 65 62 62 60 55 50 46 47 44 44 41 38 37
25 52 77 72 72 77 72 74 76 78 74 73 71 72 72 71 73 72 72 71 72 71 76 76 72 68 67 72 70 70 70 66 65 60 59 59 54 49 45 43 42 41 41
21 18 26 46 39 52 58 58 61 68 66 64 64 64 65 68 72 74 74 75 72 72 70 74 78 72 68 75 73 76 73 75 69 68 65 63 58 53 50 47 44 47 45
23 17 9 19 30 15 17 31 42 47 53 55 59 60 61 64 67 70 72 74 70 69 69 74 76 80 96 100 77 81 75 76 69 71 67 64 61 57 54 52 49 49 49
26 21 19 25 34 42 52 61 58 32 38 44 50 54 59 61 64 66 69 71 73 72 71 73 76 82 106 99 83 86 78 73 69 72 68 67 61 57 54 52 50 51 50
23 24 24 27 34 30 32 30 17 27 38 46 52 55 60 62 61 59 61 64 68 69 74 75 74 83 98 84 93 75 72 73 71 69 67 63 62 60 58 55 55 53 51
18 20 24 27 32 40 46 51 54 61 63 69 75 81 83 83 86 85 84 80 90 75 78 74 62 69 80 84 79 74 74 74 69 65 62 63 64 62 60 59 57 56 55
8 5 25 28 30 36 39 44 50 49 55 59 65 67 69 69 55 80 85 85 75 52 68 84 99 82 65 68 68 74 72 72 65 60 57 59 63 64 63 62 62 60 57
30 37 26 14 19 23 38 39 39 41 44 53 59 52 55 53 63 74 79 77 69 65 50 65 77 59 65 55 65 74 73 69 67 61 59 59 60 63 63 63 62 61 58
40 35 31 35 23 30 26 9 3 8 11 18 25 33 40 54 61 51 72 74 67 59 45 45 49 50 45 47 55 65 67 64 64 64 64 65 63 61 62 62 63 60 58
40 42 40 40 40 34 27 25 27 26 30 13 7 9 29 14 9 17 24 32 53 45 36 35 33 31 34 43 54 56 62 63 63 65 68 69 63 60 60 62 61 60 63
35 36 34 34 34 31 27 27 28 27 28 25 27 23 32 42 28 7 2 17 28 28 30 32 31 37 41 43 46 46 50 52 54 56 58 63 62 63 62 62 64 60 59
30 35 34 34 29 26 29 28 28 28 28 28 29 35 35 34 26 36 19 15 9 6 12 16 17 22 34 42 47 45 49 52 51 51 55 57 61 63 63 64 61 62 62
14 16 17 18 21 22 21 21 25 24 26 26 25 24 28 41 38 39 26 23 20 13 14 17 23 27 31 38 43 46 50 50 49 47 53 60 68 68 54 59 63 68 69
9 14 16 20 22 17 15 22 21 24 29 28 25 22 24 27 29 23 26 25 29 24 22 22 29 34 35 39 39 39 39 42 44 44 41 53 54 54 53 58 56 63 64
27 29 36 40 34 30 33 37 35 39 31 35 34 33 26 25 19 19 25 31 36 36 36 37 39 41 44 45 45 47 48 48 53 56 57 55 51 45 54 47 42 55 63
39 41 45 42 34 28 27 26 26 16 21 28 30 31 32 30 31 38 40 44 45 45 46 47 48 50 53 54 55 54 54 56 58 61 61 61 62 58 54 51 52 51 40
17 10 12 12 17 15 18 21 14 17 30 41 45 46 47 48 49 52 53 53 55 54 55 55 55 57 59 62 66 67 69 67 68 66 69 71 70 66 59 55 51 45 49
18 17 22 36 36 31 44 46 43 47 54 53 53 54 55 55 58 58 59 59 60 60 59 61 61 62 65 69 74 75 76 76 75 76 75 76 74 71 68 63 57 56 57
21 25 40 42 44 46 49 50 51 53 55 56 55 56 56 58 59 61 61 60 60 61 60 61 63 67 69 73 78 80 81 84 87 93 87 87 85 84 77 70 67 67 66
35 39 41 44 45 47 50 52 53 54 54 55 56 57 58 58 61 60 61 62 62 62 63 63 65 64 66 75 79 82 82 83 87 89 91 96 92 93 87 80 79 76 75
Wind_Direction
283 280 277 273 269 266 264 263 262 262 261 259 257 258 260 261 262 262 263 262 261 261 247 244 230 219 232 230 222 240 238 244 244 255 264 270 274 276 277 280 285 293 303
288 284 280 275 271 267 263 260 259 260 258 257 258 258 258 260 261 261 262 262 260 260 255 238 233 223 232 235 233 230 238 245 236 250 256 265 269 273 272 275 279 286 296
290 286 282 276 272 267 262 259 257 257 257 257 257 258 257 261 259 260 262 260 259 261 258 244 226 226 226 225 232 229 231 235 238 245 257 264 269 270 272 270 276 283 290
293 288 282 276 272 267 263 257 256 254 254 255 255 253 253 255 258 259 260 261 257 252 249 251 241 223 227 235 232 231 231 231 235 245 251 265 272 270 273 272 274 279 286
301 295 286 278 274 267 261 256 252 251 252 252 252 253 255 257 257 259 260 261 259 251 249 248 252 238 232 234 233 234 231 232 237 237 243 256 265 271 274 274 274 277 282
311 306 297 286 273 267 260 254 251 248 248 250 250 251 253 254 254 257 260 262 260 254 250 246 246 248 233 238 235 236 232 233 239 240 243 244 254 263 271 275 279 276 281
269 312 304 297 279 265 258 252 248 244 244 247 249 250 252 252 254 258 260 262 260 255 249 246 245 244 239 241 235 238 236 233 236 237 242 246 251 262 266 274 281 282 283
249 260 257 328 311 271 255 248 242 243 242 245 246 249 253 253 256 260 262 263 259 256 251 248 243 237 245 238 236 238 239 237 238 241 243 246 249 256 263 269 276 282 283
237 241 200 143 135 58 251 235 235 239 242 245 248 252 255 256 261 264 265 261 259 257 253 251 245 239 240 238 240 240 237 239 237 241 243 245 250 253 259 266 273 277 280
233 223 205 152 142 146 158 172 178 241 246 252 254 257 258 261 265 266 264 261 262 256 256 251 245 239 237 236 239 240 238 241 239 242 243 246 251 252 257 263 268 274 278
214 199 192 177 174 114 126 134 137 254 256 254 257 260 262 264 266 265 267 263 260 260 255 252 242 236 232 233 234 236 238 237 238 242 243 245 250 253 256 261 266 269 276
112 160 165 156 169 182 189 182 194 210 212 229 241 234 229 228 223 221 229 226 258 254 250 239 228 224 232 235 236 234 232 233 237 240 243 247 251 254 257 260 263 268 273
15 147 168 144 162 182 189 194 202 203 209 208 217 217 212 206 197 216 225 238 231 253 236 227 223 231 236 232 232 232 233 236 237 242 244 248 251 255 259 261 265 269 272
28 77 91 134 145 188 187 197 205 200 214 207 204 190 201 200 203 213 220 231 233 225 225 225 223 231 233 228 236 236 238 241 245 248 249 252 253 256 259 262 265 267 269
48 58 56 86 76 44 43 83 221 334 296 271 243 245 232 230 203 200 207 226 208 230 229 229 231 229 227 234 236 241 244 245 251 255 256 258 257 260 261 264 265 265 267
40 34 44 48 56 64 63 52 35 29 24 29 355 352 359 226 281 267 244 236 225 228 229 227 227 228 234 240 244 249 251 252 255 262 260 261 262 262 263 263 264 263 264
27 34 43 51 49 53 56 56 73 65 60 52 33 27 25 34 26 355 264 239 239 246 242 241 242 248 252 251 252 252 256 259 262 263 265 266 269 268 269 268 268 264 261
16 16 16 21 33 35 33 35 35 48 51 51 44 29 27 28 35 39 39 37 32 349 268 265 275 275 279 276 270 268 272 276 278 275 274 272 272 272 273 273 268 267 266
56 37 47 53 56 51 56 50 39 42 44 52 49 42 28 27 31 30 27 30 32 7 346 328 327 309 313 308 294 287 283 284 287 285 281 280 279 276 270 272 270 269 268
350 352 356 0 7 13 24 17 22 17 14 12 12 13 15 18 18 14 12 8 10 3 353 343 349 352 342 340 335 318 312 301 302 303 299 293 277 269 270 269 266 265 262
328 336 348 354 347 342 348 357 355 358 349 352 354 358 357 357 352 350 349 352 357 355 349 346 342 342 340 337 331 325 320 313 309 305 303 300 299 291 273 274 278 265 273
338 343 353 350 339 335 337 341 343 329 333 340 342 344 344 339 339 346 345 348 347 344 341 338 336 336 335 333 330 329 325 319 313 309 307 306 303 295 284 277 277 273 266
276 218 284 298 318 320 325 328 316 316 331 346 350 349 350 349 349 351 351 349 346 343 340 340 339 335 332 329 325 322 319 317 313 309 305 304 300 298 292 284 277 269 264
250 174 133 339 338 330 349 351 344 349 4 3 359 357 356 354 354 354 355 353 349 346 344 340 338 334 330 327 323 320 318 316 313 310 306 302 299 296 291 283 276 273 267
214 300 348 348 348 352 357 356 355 1 7 7 3 1 359 358 0 2 359 1 359 356 352 346 344 339 335 331 327 323 319 314 310 306 302 300 297 293 289 283 276 272 268
4 1 4 7 5 3 359 355 355 358 4 4 1 1 3 2 356 0 2 358 357 357 354 352 348 345 341 336 333 329 326 321 314 308 302 298 295 291 287 284 278 272 267